{"data":{"norad_id":48787,"epoch":"2026-09-19T22:04:04.927872Z","epoch_age_seconds":72039,"freshness":"FRESH","line1":"1 48787U 21045W   26262.91950148  .00000151  00000+0  36620-3 0  9997","line2":"2 48787  87.8993 240.3028 0002635  69.6138 290.5275 13.15547576256779","mean_motion":13.15547576,"eccentricity":0.0002635,"inclination_deg":87.8993,"raan_deg":240.3028,"arg_perigee_deg":69.6138,"mean_anomaly_deg":290.5275,"bstar":0.0003662,"rev_number":25677,"period_min":109.46012339428,"perigee_km":1199.7772021003,"apogee_km":1203.7718154654,"semimajor_km":7579.9115087828,"source":"CELESTRAK","updated_at":"2026-09-20T09:00:44.619456Z"}}